User: anonymous   Login
Location: Franzen
(48.6167°N, 15.3833°E)
Time: 08:26:53
(UTC+00:00)
Language:

SHIYUAN 5 (SY-5) - Orbit

View from above orbital plane
View from above orbital plane
View from above satellite
View from above satellite

Ground track
Ground track

The orbit data is extracted from the following two-line orbital elements,

1 39455U 13068A   21292.75182967  .00000078  00000-0  36300-4 0  9996
2 39455  98.2123 209.1588 0015792  69.1090 291.1794 14.41940917416357
Epoch (UTC): 19 October 2021 18:02:38
Eccentricity: 0.0015792
inclination: 98.2123°
perigee height: 741 km
apogee height: 763 km
right ascension of ascending node: 209.1588°
argument of perigee: 69.1090°
revolutions per day: 14.41940917
mean anomaly at epoch: 291.1794°
orbit number at epoch: 41635

The dashed part of the orbit path shows where the satellite is in the earth's shadow,  

DLR